| time (UTC) | temp F | wind direction | speed knots | gust knots | rain 1hr in | rain 24hr in | rain mn in | humidity % | barometer mb |
| 20260510000318 | 89 | 242 | 1.7 | 1.7 | 0.00 | 0.00 | 0.00 | 32 | 1009.5 |
| 20260509235813 | 88 | 281 | 0.9 | 1.7 | 0.00 | 0.00 | 0.00 | 32 | 1009.6 |
| 20260509235309 | 89 | 261 | 4.3 | 4.3 | 0.00 | 0.00 | 0.00 | 30 | 1009.9 |
| 20260509234805 | 88 | 255 | 1.7 | 3.5 | 0.00 | 0.00 | 0.00 | 30 | 1009.8 |
| 20260509234302 | 89 | 349 | 0.0 | 0.9 | 0.00 | 0.00 | 0.00 | 31 | 1009.5 |
| 20260509233800 | 89 | 237 | 3.5 | 5.2 | 0.00 | 0.00 | 0.00 | 32 | 1009.7 |
| 20260509233258 | 88 | 281 | 1.7 | 1.7 | 0.00 | 0.00 | 0.00 | 34 | 1009.9 |
| 20260509232753 | 88 | 209 | 1.7 | 1.7 | 0.00 | 0.00 | 0.00 | 32 | 1009.8 |
| 20260509232251 | 90 | 275 | 3.5 | 4.3 | 0.00 | 0.00 | 0.00 | 31 | 1009.9 |
| 20260509231747 | 89 | 227 | 0.9 | 0.9 | 0.00 | 0.00 | 0.00 | 32 | 1009.9 |
| 20260509231244 | 89 | 254 | 0.9 | 0.9 | 0.00 | 0.00 | 0.00 | 32 | 1010.0 |
| 20260509230742 | 88 | 235 | 3.5 | 4.3 | 0.00 | 0.00 | 0.00 | 33 | 1010.0 |
| 20260509230239 | 88 | 248 | 3.5 | 4.3 | 0.00 | 0.00 | 0.00 | 33 | 1010.0 |
| 20260509225734 | 88 | 260 | 3.5 | 4.3 | 0.00 | 0.00 | 0.00 | 29 | 1010.2 |
| 20260509225230 | 88 | 290 | 1.7 | 1.7 | 0.00 | 0.00 | 0.00 | 29 | 1010.2 |
| 20260509224726 | 89 | 261 | 2.6 | 3.5 | 0.00 | 0.00 | 0.00 | 30 | 1010.2 |
| 20260509224223 | 89 | 247 | 1.7 | 1.7 | 0.00 | 0.00 | 0.00 | 32 | 1010.2 |
| 20260509223720 | 87 | 314 | 2.6 | 3.5 | 0.00 | 0.00 | 0.00 | 33 | 1010.4 |
| 20260509223217 | 88 | 271 | 2.6 | 3.5 | 0.00 | 0.00 | 0.00 | 33 | 1010.6 |
| 20260509222714 | 87 | 263 | 1.7 | 1.7 | 0.00 | 0.00 | 0.00 | 34 | 1010.6 |
| 20260509222209 | 87 | 255 | 1.7 | 1.7 | 0.00 | 0.00 | 0.00 | 34 | 1010.8 |
| 20260509221705 | 88 | 237 | 2.6 | 4.3 | 0.00 | 0.00 | 0.00 | 36 | 1010.8 |
| 20260509221201 | 87 | 247 | 2.6 | 4.3 | 0.00 | 0.00 | 0.00 | 34 | 1010.9 |
| 20260509220657 | 86 | 271 | 1.7 | 1.7 | 0.00 | 0.00 | 0.00 | 36 | 1010.9 |
| 20260509220154 | 86 | 269 | 2.6 | 3.5 | 0.00 | 0.00 | 0.00 | 37 | 1011.0 |
| 20260509215650 | 86 | 257 | 3.5 | 4.3 | 0.00 | 0.00 | 0.00 | 36 | 1011.2 |
| 20260509215147 | 87 | 75 | 2.6 | 4.3 | 0.00 | 0.00 | 0.00 | 36 | 1011.2 |
| 20260509214643 | 86 | 267 | 0.9 | 0.9 | 0.00 | 0.00 | 0.00 | 37 | 1011.2 |
| 20260509214140 | 87 | 242 | 0.9 | 1.7 | 0.00 | 0.00 | 0.00 | 36 | 1011.3 |
| 20260509213637 | 86 | 47 | 0.9 | 0.9 | 0.00 | 0.00 | 0.00 | 37 | 1011.1 |
| 20260509213133 | 86 | 253 | 3.5 | 4.3 | 0.00 | 0.00 | 0.00 | 37 | 1011.3 |
| 20260509212631 | 85 | 328 | 2.6 | 3.5 | 0.00 | 0.00 | 0.00 | 40 | 1011.6 |
| 20260509212127 | 84 | 274 | 4.3 | 5.2 | 0.00 | 0.00 | 0.00 | 40 | 1011.5 |
| 20260509211623 | 84 | 234 | 2.6 | 3.5 | 0.00 | 0.00 | 0.00 | 42 | 1011.5 |
| 20260509211120 | 84 | 223 | 3.5 | 4.3 | 0.00 | 0.00 | 0.00 | 40 | 1011.6 |
| 20260509210617 | 85 | 250 | 1.7 | 1.7 | 0.00 | 0.00 | 0.00 | 41 | 1011.8 |
| 20260509210114 | 84 | 215 | 0.0 | 0.9 | 0.00 | 0.00 | 0.00 | 42 | 1011.8 |
| 20260509205608 | 83 | 261 | 2.6 | 3.5 | 0.00 | 0.00 | 0.00 | 42 | 1011.8 |
| 20260509205103 | 83 | 228 | 1.7 | 3.5 | 0.00 | 0.00 | 0.00 | 42 | 1011.8 |
| 20260509204600 | 84 | 309 | 0.9 | 0.9 | 0.00 | 0.00 | 0.00 | 41 | 1012.0 |
| 20260509204056 | 84 | 284 | 1.7 | 3.5 | 0.00 | 0.00 | 0.00 | 40 | 1011.8 |
| 20260509203552 | 83 | 248 | 0.9 | 1.7 | 0.00 | 0.00 | 0.00 | 42 | 1011.8 |
| 20260509203051 | 84 | 259 | 2.6 | 3.5 | 0.00 | 0.00 | 0.00 | 40 | 1012.0 |
| 20260509202545 | 83 | 15 | 0.9 | 0.9 | 0.00 | 0.00 | 0.00 | 42 | 1012.1 |
| 20260509202041 | 83 | 303 | 1.7 | 1.7 | 0.00 | 0.00 | 0.00 | 42 | 1012.2 |
| 20260509201536 | 83 | 277 | 3.5 | 4.3 | 0.00 | 0.00 | 0.00 | 41 | 1012.1 |
| 20260509201034 | 83 | 252 | 4.3 | 4.3 | 0.00 | 0.00 | 0.00 | 41 | 1012.2 |
| 20260509200527 | 82 | 237 | 2.6 | 3.5 | 0.00 | 0.00 | 0.00 | 42 | 1012.1 |
| 20260509200024 | 82 | 216 | 0.0 | 0.9 | 0.00 | 0.00 | 0.00 | 43 | 1012.2 |
| 20260509195520 | 81 | 275 | 0.9 | 0.9 | 0.00 | 0.00 | 0.00 | 43 | 1012.3 |
| 20260509195020 | 82 | 2 | 0.9 | 1.7 | 0.00 | 0.00 | 0.00 | 43 | 1012.3 |
| 20260509194515 | 80 | 255 | 1.7 | 1.7 | 0.00 | 0.00 | 0.00 | 45 | 1012.4 |
| 20260509194013 | 81 | 235 | 1.7 | 3.5 | 0.00 | 0.00 | 0.00 | 44 | 1012.4 |
| 20260509193513 | 82 | 223 | 1.7 | 1.7 | 0.00 | 0.00 | 0.00 | 44 | 1012.6 |
| 20260509193010 | 81 | 76 | 0.0 | 0.0 | 0.00 | 0.00 | 0.00 | 43 | 1012.6 |
| 20260509192506 | 81 | 247 | 1.7 | 1.7 | 0.00 | 0.00 | 0.00 | 42 | 1012.7 |
| 20260509192001 | 80 | 47 | 1.7 | 1.7 | 0.00 | 0.00 | 0.00 | 43 | 1012.6 |
| 20260509191456 | 80 | 336 | 0.9 | 0.9 | 0.00 | 0.00 | 0.00 | 44 | 1012.7 |
| 20260509190952 | 79 | 230 | 0.9 | 0.9 | 0.00 | 0.00 | 0.00 | 45 | 1012.8 |
| 20260509190449 | 80 | 253 | 2.6 | 4.3 | 0.00 | 0.00 | 0.00 | 45 | 1012.9 |
| 20260509185947 | 80 | 266 | 1.7 | 3.5 | 0.00 | 0.00 | 0.00 | 45 | 1013.0 |
| 20260509185444 | 78 | 12 | 0.9 | 0.9 | 0.00 | 0.00 | 0.00 | 47 | 1012.9 |
| 20260509184940 | 78 | 306 | 0.0 | 0.9 | 0.00 | 0.00 | 0.00 | 46 | 1013.1 |
| 20260509184439 | 77 | 298 | 0.9 | 3.5 | 0.00 | 0.00 | 0.00 | 47 | 1013.3 |
| 20260509183935 | 77 | 246 | 0.9 | 0.9 | 0.00 | 0.00 | 0.00 | 49 | 1013.1 |
| 20260509183429 | 77 | 340 | 1.7 | 1.7 | 0.00 | 0.00 | 0.00 | 47 | 1013.1 |
| 20260509182926 | 76 | 214 | 0.9 | 0.9 | 0.00 | 0.00 | 0.00 | 48 | 1013.3 |
| 20260509182422 | 77 | 342 | 0.9 | 1.7 | 0.00 | 0.00 | 0.00 | 48 | 1013.3 |
| 20260509181920 | 77 | 0 | 0.9 | 0.9 | 0.00 | 0.00 | 0.00 | 47 | 1013.4 |
| 20260509181418 | 75 | 260 | 1.7 | 3.5 | 0.00 | 0.00 | 0.00 | 49 | 1013.3 |
| 20260509180914 | 75 | 222 | 1.7 | 1.7 | 0.00 | 0.00 | 0.00 | 49 | 1013.2 |
| 20260509180409 | 75 | 261 | 1.7 | 1.7 | 0.00 | 0.00 | 0.00 | 49 | 1013.2 |
| 20260509175907 | 75 | 284 | 0.9 | 0.9 | 0.00 | 0.00 | 0.00 | 49 | 1013.5 |
| 20260509175402 | 76 | 305 | 2.6 | 4.3 | 0.00 | 0.00 | 0.00 | 49 | 1013.2 |
| 20260509174854 | 75 | 60 | 0.9 | 1.7 | 0.00 | 0.00 | 0.00 | 49 | 1013.3 |
| 20260509174350 | 75 | 344 | 0.9 | 0.9 | 0.00 | 0.00 | 0.00 | 50 | 1013.4 |
| 20260509173846 | 75 | 262 | 2.6 | 4.3 | 0.00 | 0.00 | 0.00 | 49 | 1013.5 |
| 20260509173341 | 74 | 263 | 1.7 | 1.7 | 0.00 | 0.00 | 0.00 | 51 | 1013.4 |
| 20260509172837 | 74 | 252 | 1.7 | 1.7 | 0.00 | 0.00 | 0.00 | 51 | 1013.6 |
| 20260509172334 | 73 | 331 | 0.0 | 0.0 | 0.00 | 0.00 | 0.00 | 50 | 1013.5 |
| 20260509171830 | 74 | 257 | 0.9 | 0.9 | 0.00 | 0.00 | 0.00 | 51 | 1013.4 |
| 20260509171326 | 73 | 256 | 1.7 | 3.5 | 0.00 | 0.00 | 0.00 | 52 | 1013.6 |
| 20260509170823 | 72 | 274 | 3.5 | 4.3 | 0.00 | 0.00 | 0.00 | 55 | 1013.6 |
| 20260509170319 | 72 | 241 | 0.9 | 0.9 | 0.00 | 0.00 | 0.00 | 54 | 1013.5 |
| 20260509165818 | 71 | 256 | 3.5 | 4.3 | 0.00 | 0.00 | 0.00 | 54 | 1013.7 |
| 20260509165313 | 72 | 257 | 0.9 | 1.7 | 0.00 | 0.00 | 0.00 | 56 | 1013.8 |
| 20260509164809 | 72 | 260 | 0.9 | 0.9 | 0.00 | 0.00 | 0.00 | 56 | 1013.6 |
| 20260509164306 | 71 | 273 | 0.0 | 0.9 | 0.00 | 0.00 | 0.00 | 56 | 1013.8 |
| 20260509163802 | 70 | 221 | 1.7 | 1.7 | 0.00 | 0.00 | 0.00 | 57 | 1013.8 |
| 20260509163258 | 70 | 266 | 3.5 | 4.3 | 0.00 | 0.00 | 0.00 | 57 | 1013.7 |
| 20260509162758 | 69 | 245 | 2.6 | 4.3 | 0.00 | 0.00 | 0.00 | 59 | 1013.8 |
| 20260509162251 | 69 | 256 | 1.7 | 1.7 | 0.00 | 0.00 | 0.00 | 59 | 1013.6 |
| 20260509161747 | 69 | 231 | 0.9 | 1.7 | 0.00 | 0.00 | 0.00 | 61 | 1013.5 |
| 20260509161243 | 69 | 262 | 1.7 | 3.5 | 0.00 | 0.00 | 0.00 | 62 | 1013.6 |
| 20260509160739 | 68 | 245 | 1.7 | 1.7 | 0.00 | 0.00 | 0.00 | 64 | 1013.8 |
| 20260509160236 | 66 | 267 | 0.9 | 1.7 | 0.00 | 0.00 | 0.00 | 67 | 1013.7 |
| 20260509155731 | 65 | 307 | 0.0 | 0.0 | 0.00 | 0.00 | 0.00 | 68 | 1013.8 |
| 20260509155228 | 65 | 261 | 0.9 | 0.9 | 0.00 | 0.00 | 0.00 | 68 | 1013.7 |
| 20260509154724 | 64 | 305 | 1.7 | 3.5 | 0.00 | 0.00 | 0.00 | 69 | 1014.0 |
| 20260509154221 | 64 | 263 | 1.7 | 1.7 | 0.00 | 0.00 | 0.00 | 70 | 1013.7 |
| 20260509153718 | 63 | 264 | 1.7 | 1.7 | 0.00 | 0.00 | 0.00 | 71 | 1013.7 |
| 20260509153214 | 63 | 269 | 2.6 | 3.5 | 0.00 | 0.00 | 0.00 | 72 | 1013.9 |
| 20260509152710 | 62 | 266 | 0.9 | 0.9 | 0.00 | 0.00 | 0.00 | 72 | 1013.7 |
| 20260509152207 | 62 | 291 | 0.9 | 0.9 | 0.00 | 0.00 | 0.00 | 73 | 1013.7 |
| 20260509151704 | 62 | 256 | 1.7 | 1.7 | 0.00 | 0.00 | 0.00 | 73 | 1013.6 |
| 20260509151201 | 61 | 262 | 1.7 | 1.7 | 0.00 | 0.00 | 0.00 | 73 | 1013.7 |
| 20260509150659 | 61 | 279 | 0.9 | 0.9 | 0.00 | 0.00 | 0.00 | 74 | 1013.4 |
| 20260509150157 | 61 | 282 | 1.7 | 1.7 | 0.00 | 0.00 | 0.00 | 74 | 1013.5 |
| 20260509145653 | 61 | 272 | 1.7 | 1.7 | 0.00 | 0.00 | 0.00 | 74 | 1013.5 |
| 20260509145148 | 60 | 278 | 0.0 | 0.9 | 0.00 | 0.00 | 0.00 | 74 | 1013.6 |
| 20260509144645 | 60 | 343 | 0.0 | 0.0 | 0.00 | 0.00 | 0.00 | 75 | 1013.8 |
| 20260509144142 | 61 | 264 | 4.3 | 5.2 | 0.00 | 0.00 | 0.00 | 74 | 1013.8 |
| 20260509143639 | 61 | 41 | 0.0 | 0.0 | 0.00 | 0.00 | 0.00 | 72 | 1013.7 |
| 20260509143137 | 60 | 60 | 0.0 | 0.0 | 0.00 | 0.00 | 0.00 | 73 | 1013.7 |
| 20260509142632 | 60 | 41 | 0.0 | 0.9 | 0.00 | 0.00 | 0.00 | 75 | 1013.7 |
| 20260509142129 | 59 | 359 | 0.0 | 0.9 | 0.00 | 0.00 | 0.00 | 76 | 1013.6 |
| 20260509141625 | 59 | 339 | 0.0 | 0.9 | 0.00 | 0.00 | 0.00 | 76 | 1013.7 |
| 20260509141121 | 59 | 35 | 0.0 | 0.0 | 0.00 | 0.00 | 0.00 | 75 | 1013.6 |
| 20260509140618 | 58 | 37 | 0.0 | 0.9 | 0.00 | 0.00 | 0.00 | 76 | 1013.6 |
| 20260509140116 | 58 | 31 | 0.0 | 0.0 | 0.00 | 0.00 | 0.00 | 77 | 1013.4 |
| 20260509135613 | 57 | 30 | 0.0 | 0.0 | 0.00 | 0.00 | 0.00 | 80 | 1013.4 |
| 20260509135111 | 56 | 30 | 0.0 | 0.0 | 0.00 | 0.00 | 0.00 | 81 | 1013.2 |
| 20260509134607 | 56 | 31 | 0.0 | 0.0 | 0.00 | 0.00 | 0.00 | 81 | 1013.3 |
| 20260509134105 | 56 | 31 | 0.0 | 0.0 | 0.00 | 0.00 | 0.00 | 82 | 1013.1 |
| 20260509133602 | 55 | 31 | 0.0 | 0.0 | 0.00 | 0.00 | 0.00 | 82 | 1013.1 |
| 20260509133059 | 55 | 31 | 0.0 | 0.0 | 0.00 | 0.00 | 0.00 | 82 | 1013.1 |
| 20260509132557 | 56 | 12 | 0.0 | 0.0 | 0.00 | 0.00 | 0.00 | 83 | 1013.0 |
| 20260509132056 | 56 | 14 | 0.0 | 0.0 | 0.00 | 0.00 | 0.00 | 82 | 1013.1 |
| 20260509131551 | 56 | 2 | 0.0 | 0.0 | 0.00 | 0.00 | 0.00 | 82 | 1013.0 |
| 20260509131048 | 56 | 350 | 0.0 | 0.0 | 0.00 | 0.00 | 0.00 | 82 | 1012.8 |
| 20260509130544 | 56 | 352 | 0.0 | 0.0 | 0.00 | 0.00 | 0.00 | 82 | 1012.7 |
| 20260509130041 | 56 | 282 | 0.0 | 0.0 | 0.00 | 0.00 | 0.00 | 81 | 1012.7 |
| 20260509125537 | 56 | 282 | 0.0 | 0.0 | 0.00 | 0.00 | 0.00 | 81 | 1012.7 |
| 20260509125034 | 56 | 279 | 0.9 | 0.9 | 0.00 | 0.00 | 0.00 | 81 | 1012.7 |
| 20260509124530 | 56 | 279 | 0.0 | 0.0 | 0.00 | 0.00 | 0.00 | 82 | 1012.7 |
| 20260509124028 | 56 | 257 | 0.0 | 0.0 | 0.00 | 0.00 | 0.00 | 84 | 1012.7 |
| 20260509123526 | 56 | 273 | 0.0 | 0.9 | 0.00 | 0.00 | 0.00 | 85 | 1012.7 |
| 20260509123022 | 56 | 307 | 0.0 | 0.0 | 0.00 | 0.00 | 0.00 | 85 | 1012.4 |
| 20260509122518 | 56 | 331 | 0.0 | 0.0 | 0.00 | 0.00 | 0.00 | 85 | 1012.4 |
| 20260509122015 | 56 | 331 | 0.0 | 0.0 | 0.00 | 0.00 | 0.00 | 85 | 1012.9 |
| 20260509121512 | 56 | 331 | 0.0 | 0.0 | 0.00 | 0.00 | 0.00 | 85 | 1012.7 |
| 20260509121010 | 56 | 331 | 0.0 | 0.0 | 0.00 | 0.00 | 0.00 | 85 | 1012.6 |
| 20260509120508 | 56 | 331 | 0.0 | 0.0 | 0.00 | 0.00 | 0.00 | 85 | 1012.8 |
| 20260509120006 | 56 | 331 | 0.0 | 0.0 | 0.00 | 0.00 | 0.00 | 84 | 1012.7 |
| 20260509115502 | 56 | 331 | 0.0 | 0.0 | 0.00 | 0.00 | 0.00 | 84 | 1012.6 |
| 20260509115000 | 56 | 331 | 0.0 | 0.0 | 0.00 | 0.00 | 0.00 | 84 | 1012.6 |
| 20260509114458 | 56 | 331 | 0.0 | 0.0 | 0.00 | 0.00 | 0.00 | 84 | 1012.7 |
| 20260509113957 | 57 | 331 | 0.0 | 0.0 | 0.00 | 0.00 | 0.00 | 83 | 1012.6 |
| 20260509113454 | 57 | 334 | 0.0 | 0.0 | 0.00 | 0.00 | 0.00 | 83 | 1012.6 |
| 20260509112951 | 57 | 334 | 0.0 | 0.0 | 0.00 | 0.00 | 0.00 | 83 | 1012.8 |
| 20260509112448 | 57 | 333 | 0.0 | 0.0 | 0.00 | 0.00 | 0.00 | 83 | 1012.6 |
| 20260509111944 | 57 | 333 | 0.0 | 0.0 | 0.00 | 0.00 | 0.00 | 82 | 1012.8 |
| 20260509111442 | 56 | 334 | 0.0 | 0.0 | 0.00 | 0.00 | 0.00 | 82 | 1012.8 |
| 20260509110940 | 56 | 333 | 0.0 | 0.0 | 0.00 | 0.00 | 0.00 | 82 | 1012.6 |
| 20260509110435 | 57 | 332 | 0.0 | 0.0 | 0.00 | 0.00 | 0.00 | 82 | 1012.8 |
| 20260509105933 | 57 | 332 | 0.0 | 0.0 | 0.00 | 0.00 | 0.00 | 82 | 1012.7 |
| 20260509105432 | 57 | 332 | 0.0 | 0.0 | 0.00 | 0.00 | 0.00 | 81 | 1012.9 |
| 20260509104928 | 57 | 331 | 0.0 | 0.0 | 0.00 | 0.00 | 0.00 | 81 | 1012.6 |
| 20260509104425 | 58 | 330 | 0.0 | 0.0 | 0.00 | 0.00 | 0.00 | 81 | 1012.7 |
| 20260509103922 | 58 | 34 | 0.0 | 0.0 | 0.00 | 0.00 | 0.00 | 81 | 1012.7 |
| 20260509103420 | 58 | 34 | 0.0 | 0.0 | 0.00 | 0.00 | 0.00 | 81 | 1012.8 |
| 20260509102918 | 58 | 34 | 0.0 | 0.0 | 0.00 | 0.00 | 0.00 | 81 | 1012.9 |
| 20260509102415 | 58 | 34 | 0.0 | 0.0 | 0.00 | 0.00 | 0.00 | 80 | 1012.8 |
| 20260509101911 | 58 | 34 | 0.0 | 0.0 | 0.00 | 0.00 | 0.00 | 79 | 1013.0 |
| 20260509101407 | 59 | 34 | 0.0 | 0.0 | 0.00 | 0.00 | 0.00 | 79 | 1012.7 |
| 20260509100905 | 59 | 34 | 0.0 | 0.0 | 0.00 | 0.00 | 0.00 | 79 | 1012.9 |
| 20260509100402 | 59 | 34 | 0.0 | 0.0 | 0.00 | 0.00 | 0.00 | 78 | 1012.9 |
| 20260509095858 | 60 | 25 | 0.0 | 0.0 | 0.00 | 0.00 | 0.00 | 77 | 1012.6 |
| 20260509095356 | 60 | 279 | 0.0 | 0.0 | 0.00 | 0.00 | 0.00 | 77 | 1012.8 |
| 20260509094853 | 61 | 250 | 0.0 | 0.0 | 0.00 | 0.00 | 0.00 | 76 | 1012.9 |
| 20260509094349 | 61 | 282 | 0.0 | 0.9 | 0.00 | 0.00 | 0.00 | 76 | 1012.7 |
| 20260509093847 | 61 | 261 | 1.7 | 1.7 | 0.00 | 0.00 | 0.00 | 76 | 1013.0 |
| 20260509093344 | 61 | 247 | 1.7 | 3.5 | 0.00 | 0.00 | 0.00 | 75 | 1012.7 |
| 20260509092843 | 61 | 264 | 1.7 | 1.7 | 0.00 | 0.00 | 0.00 | 76 | 1012.6 |
| 20260509092340 | 62 | 270 | 0.9 | 1.7 | 0.00 | 0.00 | 0.00 | 75 | 1012.6 |
| 20260509091838 | 62 | 257 | 2.6 | 3.5 | 0.00 | 0.00 | 0.00 | 75 | 1012.5 |
| 20260509091335 | 62 | 234 | 0.9 | 0.9 | 0.00 | 0.00 | 0.00 | 75 | 1012.8 |
| 20260509090832 | 62 | 234 | 0.9 | 1.7 | 0.00 | 0.00 | 0.00 | 74 | 1012.8 |
| 20260509090329 | 63 | 266 | 1.7 | 1.7 | 0.00 | 0.00 | 0.00 | 74 | 1012.8 |
| 20260509085826 | 63 | 247 | 2.6 | 3.5 | 0.00 | 0.00 | 0.00 | 74 | 1012.7 |
| 20260509085324 | 63 | 274 | 0.9 | 0.9 | 0.00 | 0.00 | 0.00 | 74 | 1012.7 |
| 20260509084820 | 63 | 258 | 0.9 | 0.9 | 0.00 | 0.00 | 0.00 | 73 | 1012.8 |
| 20260509084317 | 63 | 278 | 0.9 | 1.7 | 0.00 | 0.00 | 0.00 | 73 | 1012.5 |
| 20260509083815 | 64 | 27 | 0.0 | 0.0 | 0.00 | 0.00 | 0.00 | 73 | 1012.7 |
| 20260509083311 | 64 | 257 | 0.0 | 0.9 | 0.00 | 0.00 | 0.00 | 72 | 1012.9 |
| 20260509082808 | 64 | 236 | 0.9 | 1.7 | 0.00 | 0.00 | 0.00 | 72 | 1012.8 |
| 20260509082307 | 64 | 281 | 0.9 | 0.9 | 0.00 | 0.00 | 0.00 | 72 | 1013.0 |
| 20260509081802 | 64 | 276 | 0.0 | 0.9 | 0.00 | 0.00 | 0.00 | 72 | 1012.9 |
| 20260509081259 | 65 | 326 | 0.9 | 0.9 | 0.00 | 0.00 | 0.00 | 71 | 1013.0 |
| 20260509080757 | 65 | 247 | 0.9 | 0.9 | 0.00 | 0.00 | 0.00 | 72 | 1012.8 |
| 20260509080255 | 65 | 236 | 0.9 | 1.7 | 0.00 | 0.00 | 0.00 | 72 | 1012.8 |
| 20260509075753 | 65 | 246 | 2.6 | 3.5 | 0.00 | 0.00 | 0.00 | 71 | 1012.9 |
| 20260509075249 | 65 | 260 | 1.7 | 1.7 | 0.00 | 0.00 | 0.00 | 71 | 1013.0 |
| 20260509074746 | 65 | 257 | 1.7 | 1.7 | 0.00 | 0.00 | 0.00 | 71 | 1013.2 |
| 20260509074244 | 65 | 274 | 1.7 | 1.7 | 0.00 | 0.00 | 0.00 | 71 | 1013.1 |
| 20260509073740 | 66 | 277 | 0.9 | 1.7 | 0.00 | 0.00 | 0.00 | 71 | 1013.0 |
| 20260509073237 | 66 | 255 | 0.9 | 0.9 | 0.00 | 0.00 | 0.00 | 71 | 1012.8 |
| 20260509072733 | 66 | 1 | 0.0 | 0.0 | 0.00 | 0.00 | 0.00 | 70 | 1013.0 |
| 20260509072230 | 66 | 257 | 0.9 | 0.9 | 0.00 | 0.00 | 0.00 | 70 | 1013.0 |
| 20260509071727 | 66 | 254 | 1.7 | 1.7 | 0.00 | 0.00 | 0.00 | 70 | 1013.2 |
| 20260509071224 | 67 | 248 | 0.9 | 0.9 | 0.00 | 0.00 | 0.00 | 69 | 1013.0 |
| 20260509070721 | 67 | 267 | 0.9 | 0.9 | 0.00 | 0.00 | 0.00 | 68 | 1013.0 |
| 20260509070217 | 67 | 251 | 0.9 | 1.7 | 0.00 | 0.00 | 0.00 | 68 | 1013.0 |
| 20260509065714 | 67 | 268 | 0.9 | 1.7 | 0.00 | 0.00 | 0.00 | 67 | 1013.0 |
| 20260509065210 | 67 | 275 | 1.7 | 1.7 | 0.00 | 0.00 | 0.00 | 67 | 1012.9 |
| 20260509064707 | 68 | 269 | 1.7 | 1.7 | 0.00 | 0.00 | 0.00 | 67 | 1013.0 |
| 20260509064204 | 68 | 247 | 1.7 | 1.7 | 0.00 | 0.00 | 0.00 | 67 | 1013.1 |
| 20260509063701 | 68 | 265 | 2.6 | 3.5 | 0.00 | 0.00 | 0.00 | 67 | 1013.0 |
| 20260509063158 | 68 | 240 | 5.2 | 7.0 | 0.00 | 0.00 | 0.00 | 67 | 1012.9 |
| 20260509062655 | 68 | 268 | 0.9 | 0.9 | 0.00 | 0.00 | 0.00 | 67 | 1012.9 |
| 20260509062152 | 68 | 260 | 1.7 | 1.7 | 0.00 | 0.00 | 0.00 | 66 | 1012.9 |
| 20260509061649 | 68 | 231 | 1.7 | 3.5 | 0.00 | 0.00 | 0.00 | 66 | 1012.9 |
| 20260509061147 | 68 | 259 | 0.9 | 1.7 | 0.00 | 0.00 | 0.00 | 65 | 1012.9 |
| 20260509060644 | 68 | 244 | 1.7 | 1.7 | 0.00 | 0.00 | 0.00 | 65 | 1012.9 |
| 20260509060140 | 68 | 267 | 0.9 | 1.7 | 0.00 | 0.00 | 0.00 | 65 | 1012.8 |
| 20260509055635 | 68 | 256 | 1.7 | 1.7 | 0.00 | 0.00 | 0.00 | 65 | 1012.9 |
| 20260509055131 | 68 | 254 | 1.7 | 1.7 | 0.00 | 0.00 | 0.00 | 65 | 1012.8 |
| 20260509054628 | 68 | 269 | 0.0 | 0.0 | 0.00 | 0.00 | 0.00 | 65 | 1012.6 |
| 20260509054126 | 68 | 18 | 1.7 | 1.7 | 0.00 | 0.00 | 0.00 | 65 | 1012.7 |
| 20260509053624 | 68 | 5 | 0.0 | 0.0 | 0.00 | 0.00 | 0.00 | 64 | 1012.7 |
| 20260509053121 | 69 | 256 | 0.0 | 0.0 | 0.00 | 0.00 | 0.00 | 63 | 1012.8 |
| 20260509052619 | 69 | 255 | 1.7 | 1.7 | 0.00 | 0.00 | 0.00 | 63 | 1012.7 |
| 20260509052116 | 69 | 217 | 0.0 | 0.9 | 0.00 | 0.00 | 0.00 | 62 | 1012.9 |
| 20260509051614 | 68 | 216 | 0.0 | 0.0 | 0.00 | 0.00 | 0.00 | 63 | 1012.8 |
| 20260509051111 | 68 | 199 | 0.0 | 0.0 | 0.00 | 0.00 | 0.00 | 62 | 1012.7 |
| 20260509050608 | 68 | 207 | 0.0 | 0.0 | 0.00 | 0.00 | 0.00 | 62 | 1012.6 |
| 20260509050104 | 69 | 207 | 0.0 | 0.0 | 0.00 | 0.00 | 0.00 | 61 | 1012.7 |
| 20260509045602 | 69 | 207 | 0.0 | 0.0 | 0.00 | 0.00 | 0.00 | 60 | 1012.6 |
| 20260509045058 | 69 | 207 | 0.0 | 0.0 | 0.00 | 0.00 | 0.00 | 60 | 1012.6 |
| 20260509044555 | 69 | 206 | 0.0 | 0.0 | 0.00 | 0.00 | 0.00 | 60 | 1012.6 |
| 20260509044048 | 69 | 206 | 0.0 | 0.0 | 0.00 | 0.00 | 0.00 | 59 | 1012.3 |
| 20260509043544 | 70 | 206 | 0.0 | 0.0 | 0.00 | 0.00 | 0.00 | 58 | 1012.6 |
| 20260509043039 | 70 | 234 | 0.0 | 0.0 | 0.00 | 0.00 | 0.00 | 58 | 1012.4 |
| 20260509042536 | 70 | 239 | 0.0 | 0.0 | 0.00 | 0.00 | 0.00 | 57 | 1012.4 |
| 20260509042032 | 70 | 240 | 0.0 | 0.9 | 0.00 | 0.00 | 0.00 | 55 | 1012.3 |
| 20260509041529 | 71 | 241 | 0.0 | 0.0 | 0.00 | 0.00 | 0.00 | 54 | 1012.5 |
| 20260509041027 | 71 | 247 | 0.0 | 0.9 | 0.00 | 0.00 | 0.00 | 52 | 1012.2 |
| 20260509040525 | 72 | 254 | 0.9 | 0.9 | 0.00 | 0.00 | 0.00 | 51 | 1012.1 |
| 20260509040021 | 72 | 260 | 0.9 | 0.9 | 0.00 | 0.00 | 0.00 | 51 | 1012.3 |
| 20260509035518 | 72 | 257 | 0.0 | 0.9 | 0.00 | 0.00 | 0.00 | 50 | 1012.1 |
| 20260509035015 | 72 | 257 | 0.0 | 0.9 | 0.00 | 0.00 | 0.00 | 48 | 1011.9 |
| 20260509034513 | 73 | 261 | 0.0 | 0.9 | 0.00 | 0.00 | 0.00 | 46 | 1012.3 |
| 20260509034010 | 73 | 259 | 0.9 | 0.9 | 0.00 | 0.00 | 0.00 | 45 | 1012.0 |
| 20260509033506 | 73 | 327 | 0.9 | 0.9 | 0.00 | 0.00 | 0.00 | 43 | 1012.0 |
| 20260509032957 | 73 | 341 | 0.0 | 0.0 | 0.00 | 0.00 | 0.00 | 43 | 1012.2 |
| 20260509032455 | 73 | 322 | 0.0 | 0.0 | 0.00 | 0.00 | 0.00 | 42 | 1012.1 |
| 20260509031952 | 74 | 1 | 0.0 | 0.0 | 0.00 | 0.00 | 0.00 | 42 | 1012.1 |
| 20260509031449 | 75 | 2 | 0.0 | 0.0 | 0.00 | 0.00 | 0.00 | 41 | 1011.9 |
| 20260509030947 | 75 | 11 | 0.0 | 0.0 | 0.00 | 0.00 | 0.00 | 41 | 1011.8 |
| 20260509030445 | 76 | 24 | 0.0 | 0.0 | 0.00 | 0.00 | 0.00 | 40 | 1011.8 |
| 20260509025941 | 76 | 260 | 0.0 | 0.9 | 0.00 | 0.00 | 0.00 | 41 | 1011.9 |
| 20260509025437 | 77 | 245 | 1.7 | 3.5 | 0.00 | 0.00 | 0.00 | 40 | 1011.7 |
| 20260509024932 | 77 | 267 | 0.9 | 1.7 | 0.00 | 0.00 | 0.00 | 41 | 1011.6 |
| 20260509024429 | 78 | 265 | 0.9 | 0.9 | 0.00 | 0.00 | 0.00 | 41 | 1011.8 |
| 20260509023926 | 78 | 238 | 2.6 | 3.5 | 0.00 | 0.00 | 0.00 | 40 | 1011.7 |
| 20260509023423 | 79 | 247 | 0.9 | 0.9 | 0.00 | 0.00 | 0.00 | 39 | 1011.5 |
| 20260509022920 | 80 | 232 | 0.9 | 0.9 | 0.00 | 0.00 | 0.00 | 39 | 1011.6 |
| 20260509022417 | 81 | 249 | 0.9 | 0.9 | 0.00 | 0.00 | 0.00 | 38 | 1011.7 |
| 20260509021914 | 82 | 241 | 1.7 | 1.7 | 0.00 | 0.00 | 0.00 | 36 | 1011.4 |
| 20260509021411 | 82 | 256 | 0.9 | 0.9 | 0.00 | 0.00 | 0.00 | 35 | 1011.6 |
| 20260509020908 | 83 | 247 | 0.0 | 0.9 | 0.00 | 0.00 | 0.00 | 34 | 1011.4 |
| 20260509020407 | 83 | 227 | 0.0 | 0.9 | 0.00 | 0.00 | 0.00 | 32 | 1011.5 |
| 20260509015903 | 84 | 227 | 1.7 | 1.7 | 0.00 | 0.00 | 0.00 | 31 | 1011.4 |
| 20260509015402 | 84 | 254 | 0.9 | 1.7 | 0.00 | 0.00 | 0.00 | 29 | 1011.4 |
| 20260509014858 | 84 | 219 | 0.9 | 0.9 | 0.00 | 0.00 | 0.00 | 30 | 1011.5 |
| 20260509014355 | 84 | 228 | 1.7 | 1.7 | 0.00 | 0.00 | 0.00 | 31 | 1011.3 |
| 20260509013851 | 85 | 267 | 0.9 | 0.9 | 0.00 | 0.00 | 0.00 | 30 | 1011.5 |
| 20260509013348 | 85 | 251 | 1.7 | 1.7 | 0.00 | 0.00 | 0.00 | 29 | 1011.4 |
| 20260509012844 | 85 | 228 | 1.7 | 1.7 | 0.00 | 0.00 | 0.00 | 27 | 1011.6 |
| 20260509012341 | 85 | 75 | 3.5 | 4.3 | 0.00 | 0.00 | 0.00 | 26 | 1011.5 |
| 20260509011838 | 86 | 227 | 0.9 | 0.9 | 0.00 | 0.00 | 0.00 | 27 | 1011.4 |
| 20260509011336 | 86 | 246 | 2.6 | 3.5 | 0.00 | 0.00 | 0.00 | 28 | 1011.7 |
| 20260509010833 | 86 | 234 | 1.7 | 1.7 | 0.00 | 0.00 | 0.00 | 27 | 1011.5 |
| 20260509010330 | 86 | 257 | 0.9 | 1.7 | 0.00 | 0.00 | 0.00 | 25 | 1011.6 |
| 20260509005827 | 87 | 296 | 1.7 | 1.7 | 0.00 | 0.00 | 0.00 | 25 | 1011.6 |
| 20260509005325 | 87 | 177 | 1.7 | 1.7 | 0.00 | 0.00 | 0.00 | 26 | 1011.7 |
| 20260509004820 | 87 | 260 | 0.9 | 0.9 | 0.00 | 0.00 | 0.00 | 24 | 1011.7 |
| 20260509004316 | 87 | 214 | 1.7 | 1.7 | 0.00 | 0.00 | 0.00 | 27 | 1011.7 |
| 20260509003814 | 87 | 245 | 1.7 | 3.5 | 0.00 | 0.00 | 0.00 | 27 | 1011.8 |
| 20260509003312 | 87 | 51 | 0.9 | 0.9 | 0.00 | 0.00 | 0.00 | 27 | 1011.8 |
| 20260509002809 | 87 | 225 | 3.5 | 4.3 | 0.00 | 0.00 | 0.00 | 29 | 1011.6 |
| 20260509002307 | 87 | 275 | 2.6 | 3.5 | 0.00 | 0.00 | 0.00 | 30 | 1011.8 |
| 20260509001804 | 88 | 273 | 1.7 | 1.7 | 0.00 | 0.00 | 0.00 | 30 | 1011.8 |
| 20260509001259 | 88 | 255 | 2.6 | 3.5 | 0.00 | 0.00 | 0.00 | 28 | 1012.0 |
| 20260509000757 | 87 | 266 | 2.6 | 3.5 | 0.00 | 0.00 | 0.00 | 26 | 1011.9 |